Regional Weather Roundup
Issued by NWS

Home | Current Version | Previous Version | Graphics & Text | Print | Product List | Glossary On
Versions: 1 2 3 4 5 6 7 8 9 10 11 12 13 14 15 16 17 18 19 20 21 22 23 24 25 26 27 28 29 30 31 32 33 34 35 36 37 38 39 40 41 42 43 44 45 46 47 48 49 50
000
ASUS43 KMKX 240620
RWRWI

WISCONSIN REGIONAL WEATHER ROUNDUP
NATIONAL WEATHER SERVICE MILWAUKEE/SULLIVAN WI
100 AM CDT TUE APR 24 2018

NOTE: "FAIR" INDICATES FEW OR NO CLOUDS BELOW 12,000 FEET WITH NO
SIGNIFICANT WEATHER AND/OR OBSTRUCTIONS TO VISIBILITY.

WIZ001-002-006>008-014>016-023>028-240700-
NORTHWEST WISCONSIN

CITY           SKY/WX    TMP DP  RH WIND       PRES   REMARKS
SUPERIOR ARPT  FAIR      39  34  82 CALM      30.12S
6HR MIN TEMP:  39; 6HR MAX TEMP:  66;

ASHLAND        FAIR      47  30  51 SW8       30.11S
6HR MIN TEMP:  44; 6HR MAX TEMP:  65;

HAYWARD        FAIR      35  27  72 N3        30.13S
6HR MIN TEMP:  34; 6HR MAX TEMP:  63;

SIREN          FAIR      39  33  79 CALM      30.13S
6HR MIN TEMP:  39; 6HR MAX TEMP:  65;

CUMBERLAND     FAIR      37  30  75 CALM      30.13S
RICE LAKE      FAIR      36  35  95 CALM      30.15S
6HR MIN TEMP:  35; 6HR MAX TEMP:  63;

CHETEK         FAIR      37  33  85 CALM      30.13S
6HR MIN TEMP:  37; 6HR MAX TEMP:  58;

LADYSMITH      FAIR      37  30  77 CALM      30.15S
6HR MIN TEMP:  37; 6HR MAX TEMP:  64;

EAU CLAIRE     FAIR      43  33  68 CALM      30.13R
6HR MIN TEMP:  41; 6HR MAX TEMP:  67;

MENOMONIE      FAIR      45  34  65 CALM      30.13S
6HR MIN TEMP:  45; 6HR MAX TEMP:  67;

NEW RICHMOND   FAIR      41  35  80 CALM      30.14S
6HR MIN TEMP:  40; 6HR MAX TEMP:  65;

OSCEOLA        FAIR      40  34  80 CALM      30.16S
6HR MIN TEMP:  40; 6HR MAX TEMP:  67;

$$

WIZ003>005-009-010-017-018-240700-
NORTH CENTRAL WISCONSIN

CITY           SKY/WX    TMP DP  RH WIND       PRES   REMARKS
MANITOWISH WTR FAIR      33  27  80 CALM      30.13S
6HR MIN TEMP:  32; 6HR MAX TEMP:  58;

ARBOR VITAE    FAIR      37  27  69 CALM      30.13S
6HR MIN TEMP:  37; 6HR MAX TEMP:  62;

WOODRUFF       FAIR      37  27  69 CALM      30.13S
6HR MIN TEMP:  37; 6HR MAX TEMP:  62;

RHINELANDER    NOT AVBL
EAGLE RIVER    FAIR      32  25  75 CALM      30.12S
6HR MIN TEMP:  32; 6HR MAX TEMP:  59;

LAND O LAKES   FAIR      30  25  80 CALM      30.15S
6HR MIN TEMP:  30; 6HR MAX TEMP:  62;

PHILLIPS       FAIR      33  29  84 CALM      30.13S
6HR MIN TEMP:  33; 6HR MAX TEMP:  62;

TOMAHAWK       FAIR      31  25  76 CALM      30.14S
6HR MIN TEMP:  31; 6HR MAX TEMP:  60;

MEDFORD        FAIR      37  32  80 CALM      30.13S
6HR MIN TEMP:  36; 6HR MAX TEMP:  58;

MERRILL        FAIR      32  27  81 CALM      30.14S
6HR MIN TEMP:  32; 6HR MAX TEMP:  62;

$$

WIZ029-030-035-036-043>047-240700-
CENTRAL WISCONSIN

CITY           SKY/WX    TMP DP  RH WIND       PRES   REMARKS
WAUSAU         NOT AVBL
MOSINEE        FAIR      45  27  49 CALM      30.14S
MARSHFIELD     NOT AVBL
STEVENS POINT  FAIR      32  25  74 CALM      30.13F
6HR MIN TEMP:  32; 6HR MAX TEMP:  58;

WAUPACA        FAIR      38  32  81 CALM      30.13S
6HR MIN TEMP:  38; 6HR MAX TEMP:  61;

WAUTOMA        NOT AVBL
WISC RAPIDS    NOT AVBL
CAMP DOUGLAS   NOT AVBL
$$

WIZ011>013-019>022-031-037>040-048>050-240700-
NORTHEAST WISCONSIN

CITY           SKY/WX    TMP DP  RH WIND       PRES   REMARKS
ANTIGO         FAIR      34  30  86 CALM      30.14S
6HR MIN TEMP:  33; 6HR MAX TEMP:  57;

SHAWANO        FAIR      36  31  82 CALM      30.13F
6HR MIN TEMP:  36; 6HR MAX TEMP:  59;

OCONTO         FAIR      34  29  82 CALM      30.13F
6HR MIN TEMP:  34; 6HR MAX TEMP:  57;

STURGEON BAY   NOT AVBL
GREEN BAY      FAIR      43  37  79 N5        30.13S
6HR MIN TEMP:  43; 6HR MAX TEMP:  57;

MANITOWOC      FAIR      44  33  65 N5        30.11F
6HR MIN TEMP:  44; 6HR MAX TEMP:  56;

APPLETON       FAIR      46  27  46 CALM      30.11S
CLINTONVILLE   FAIR      35  29  78 CALM      30.13S
6HR MIN TEMP:  36; 6HR MAX TEMP:  57;

OSHKOSH        FAIR      45  33  63 CALM      30.12S
6HR MIN TEMP:  44; 6HR MAX TEMP:  60;

$$

WIZ032>034-041-042-053>061-240700-
SOUTHWEST WISCONSIN

CITY           SKY/WX    TMP DP  RH WIND       PRES   REMARKS
LA CROSSE      FAIR      49  33  54 NE3       30.13R
6HR MIN TEMP:  46; 6HR MAX TEMP:  70;

SPARTA         FAIR      35  29  82 CALM      30.14S
6HR MIN TEMP:  34; 6HR MAX TEMP:  66;

VIROQUA        FAIR      49  29  46 E5        30.12S
6HR MIN TEMP:  49; 6HR MAX TEMP:  63;

BOSCOBEL       FAIR      38  32  79 CALM      30.12S
6HR MIN TEMP:  38; 6HR MAX TEMP:  68;

PRAIRIE DU CHI FAIR      43  32  64 CALM      30.12R
6HR MIN TEMP:  43; 6HR MAX TEMP:  67;

PLATTEVILLE    FAIR      47  34  61 NE6       30.11S
6HR MIN TEMP:  47; 6HR MAX TEMP:  64;

$$

WIZ056-057-062-063-064-067-068-240700-
SOUTH CENTRAL WISCONSIN

CITY           SKY/WX    TMP DP  RH WIND       PRES   REMARKS
REEDSBURG      FAIR      40  35  81 CALM      30.11F
6HR MIN TEMP:  40; 6HR MAX TEMP:  64;

BARABOO/DELLS  FAIR      39  29  69 CALM      30.12S
6HR MIN TEMP:  38; 6HR MAX TEMP:  62;

LONE ROCK      FAIR      39  33  79 CALM      30.12S
6HR MIN TEMP:  38; 6HR MAX TEMP:  65;

MINERAL POINT  FAIR      50  32  50 NE5       30.11S
MADISON        FAIR      43  33  68 CALM      30.11S
6HR MIN TEMP:  43; 6HR MAX TEMP:  60;

MIDDLETON      FAIR      41  36  81 CALM      30.12R
WATERTOWN      FAIR      43  33  66 CALM      30.10F
6HR MIN TEMP:  40; 6HR MAX TEMP:  60;

MONROE         FAIR      48  30  49 NE6       30.10S
JANESVILLE     FAIR      41  32  70 CALM      30.11S
$$

WIZ051-052-058>065-066-070>072-240700-
SOUTHEAST WISCONSIN

CITY           SKY/WX    TMP DP  RH WIND       PRES   REMARKS
MILWAUKEE      MOCLDY    47  30  51 N3        30.11S
6HR MIN TEMP:  46; 6HR MAX TEMP:  53;

WAUKESHA       FAIR      45  27  49 CALM      30.12R
MILWAUKEE/TIMM FAIR      46  27  46 CALM      30.11S
RACINE         CLOUDY    45  31  58 NW6       30.11F
6HR MIN TEMP:  43; 6HR MAX TEMP:  50;

BURLINGTON     FAIR      46  31  56 CALM      30.10F
6HR MIN TEMP:  45; 6HR MAX TEMP:  60;

KENOSHA        MOCLDY    47  31  53 NW6       30.09F
6HR MIN TEMP:  44; 6HR MAX TEMP:  56;

FOND DU LAC    FAIR      41  34  76 CALM      30.11F
6HR MIN TEMP:  39; 6HR MAX TEMP:  56;

SHEBOYGAN      FAIR      46  32  58 N6        30.11S
6HR MIN TEMP:  42; 6HR MAX TEMP:  54;

WEST BEND      FAIR      46  27  46 CALM      30.10S
JUNEAU         FAIR      46  31  56 CALM      30.12S
6HR MIN TEMP:  45; 6HR MAX TEMP:  58;

$$

LSZ147-162-240700-
LAKE SUPERIOR

STATION/POSITION TIME  TEMP    WIND        PRES    WAVE
                       AIR SEA DIR/SP/G            HT/PER
                 (UTC) (F)     (DEG/KT/KT) (MB)    (FT/S)
DEVILS ISLAND    0600   50     330/  7/  8 1020.2R
SAXON HARBOR     0540   38     190/  5/  7 1018.6S
$$

LMZ867-665-643>646-240700-
LAKE MICHIGAN

STATION/POSITION TIME  TEMP    WIND        PRES    WAVE
                       AIR SEA DIR/SP/G            HT/PER
                 (UTC) (F)     (DEG/KT/KT) (MB)    (FT/S)
NORTHPORT PIER   0540   38                 1020.0F
KEWAUNEE LAKESHO 0554   44     310/  4/  5 1018.9F
SHEBOYGAN LAKESH 0600   48      10/ 11/ 12 1019.7F
PORT WASHINGTON  0540   50     320/  4/ 10 1020.3R
MILWAUKEE LAKESH 0600   43      20/  2/  2   N/A
KENOSHA   LAKESH 0600   46                 1019.0
$$

TC  - TEMPERATURE IN CELSIUS
VSB - VISIBILITY IN STATUTE MILES
WCI - WIND CHILL INDEX
HX  - HEAT INDEX





USA.gov is the U.S. government's official web portal to all federal, state and local government web resources and services.